Miscellaneous Local Product
Issued by NWS Hastings, NE

Home | Current Version | Previous Version | Text Only | Print | Product List | Glossary On
Versions: 1 2 3 4 5 6 7 8 9 10 11 12 13 14 15 16 17 18 19 20 21 22 23 24 25 26 27 28 29 30 31 32 33 34 35 36 37 38 39 40 41 42 43 44 45 46 47 48 49 50
000
AXUS43 KGID 241802
MISGRI

GID CWA HOURLY WEATHER ROUNDUP
NATIONAL WEATHER SERVICE HASTINGS NE
100 PM CDT SAT JUN 24 2017

NOTE: "FAIR" INDICATES FEW OR NO CLOUDS BELOW 12,000 FEET WITH NO
SIGNIFICANT WEATHER AND/OR OBSTRUCTIONS TO VISIBILITY.

...SOUTH CENTRAL NEBRASKA...

CITY           SKY/WX    TMP DP  RH WIND       PRES   REMARKS
GRAND ISLAND   SUNNY     74  36  25 W12G21    30.25S
HASTINGS       CLOUDY    76  31  19 W8G23     30.28S
KEARNEY        CLOUDY    75  39  27 SW13      30.27S
ORD            MOSUNNY   78  33  19 W21G29    30.21F
YORK           SUNNY     73  37  27 W13G18    30.24S
AURORA         SUNNY     75  38  25 W12G18    30.25S
LEXINGTON      CLOUDY    71  38  30 SW7       30.29R
HOLDREGE       CLOUDY    69  38  31 SW10      30.29S
HEBRON         SUNNY     77  35  22 CALM      30.26S

...NEBRASKA PANHANDLE...

CITY           SKY/WX    TMP DP  RH WIND       PRES   REMARKS
CHADRON        MOSUNNY   73  37  27 N9G16     30.29S
ALLIANCE       SUNNY     71  34  25 SW8       30.30S
SCOTTSBLUFF    CLOUDY    69  34  27 VRB5      30.32S
SIDNEY         MOSUNNY   72  33  24 E6        30.32S

...WESTERN AND NORTH CENTRAL NEBRASKA...

CITY           SKY/WX    TMP DP  RH WIND       PRES   REMARKS
VALENTINE      PTSUNNY   74  27  17 NW17G31   30.24R
AINSWORTH      CLOUDY    71  35  26 W21G28    30.24S
ONEILL         MOSUNNY   74  34  22 W17G33    30.21S
BROKEN BOW     MOSUNNY   77  36  22 NW14G22   30.25S
IMPERIAL       CLOUDY    70  40  33 SE5       30.30S
NORTH PLATTE   CLOUDY    75  35  23 MISG      30.27F
MCCOOK         CLOUDY    72  42  34 VRB3      30.29S

...EASTERN NEBRASKA...

CITY           SKY/WX    TMP DP  RH WIND       PRES   REMARKS
NORFOLK        MOSUNNY   76  36  23 NW22G35   30.18S
SO SIOUX CITY  MOSUNNY   77  34  21 NW22G33   30.12F
TEKAMAH        PTSUNNY   78  35  21 W21G26    30.15S
COLUMBUS       MOSUNNY   76  39  26 W12G23    30.20S
ALBION         PTSUNNY   76  32  19 NW16G25   30.20F
OMAHA EPPLEY   MOSUNNY   78  37  22 W21G26    30.17S
OFFUTT AFB     SUNNY     76  38  24 W14G23    30.18S
MILLARD        SUNNY     78  40  25 NW15G26   30.19S
LINCOLN        SUNNY     78  37  22 W17G23    30.22S
NEBRASKA CITY  SUNNY     74  45  36 W15       30.22S
BEATRICE       SUNNY     76  41  28 NW5       30.24S
FALLS CITY     SUNNY     74  41  30 VRB6      30.22F

...NORTHERN KANSAS...

CITY           SKY/WX    TMP DP  RH WIND       PRES   REMARKS
GOODLAND       CLOUDY    67  52  58 SE14      30.30F
HILL CITY      CLOUDY    74  47  38 VRB7      30.30F
NORTON         MOCLDY    75  36  23 S8        30.29F
PHILLIPSBURG   PTSUNNY   75  39  27 S10       30.29S
SMITH CENTER   MOSUNNY   75  39  27 SW13      30.29S
HAYS           PTSUNNY   75  51  43 E8        30.28F
RUSSELL        SUNNY     76  44  32 VRB7      30.27S
CONCORDIA      SUNNY     76  38  25 SW9       30.27S
SALINA         SUNNY     80  43  26 VRB3      30.26F
TOPEKA         SUNNY     77  46  33 N5        30.24F



USA.gov is the U.S. government's official web portal to all federal, state and local government web resources and services.